User: anonymous   Login
Location: Bishop�s Knoyle
(51.0728°N, 2.1714°W)
Time: 21:50:45
(UTC+00:00)
Language:

Envisat - Orbit

View from above orbital plane
View from above orbital plane
View from above satellite
View from above satellite

Ground track
Ground track

The orbit data is extracted from the following two-line orbital elements,

1 27386U 02009A   21288.55126301  .00000073  00000-0  37449-4 0  9992
2 27386  98.1596 276.5321 0001218  90.0390  19.8316 14.38047419 28262
Epoch (UTC): 15 October 2021 13:13:49
Eccentricity: 0.0001218
inclination: 98.1596°
perigee height: 764 km
apogee height: 766 km
right ascension of ascending node: 276.5321°
argument of perigee: 90.0390°
revolutions per day: 14.38047419
mean anomaly at epoch: 19.8316°
orbit number at epoch: 2826

The dashed part of the orbit path shows where the satellite is in the earth's shadow,  

DLR